Time,TemperatureF,DewpointF,PressureIn,WindDirection,WindDirectionDegrees,WindSpeedMPH,WindSpeedGustMPH,Humidity,HourlyPrecipIn,Conditions,Clouds,dailyrainin,SoftwareType,DateUTC
2013-08-11 00:18:00,62.0,-99.9,-100.00,SSE,159,3.0,-999.0,-999,-99.99,,,-99.99,,2013-08-11 07:18:00,
2013-08-11 00:20:00,60.0,-99.9,-100.00,South,177,6.0,-999.0,-999,-99.99,,,-99.99,,2013-08-11 07:20:00,
2013-08-11 01:15:00,59.0,-99.9,-100.00,South,178,3.0,-999.0,-999,-99.99,,,-99.99,,2013-08-11 08:15:00,
2013-08-11 02:20:00,59.0,-99.9,-100.00,South,172,3.0,-999.0,-999,-99.99,,,-99.99,,2013-08-11 09:20:00,
2013-08-11 03:15:00,59.0,-99.9,-100.00,South,172,3.0,-999.0,-999,-99.99,,,-99.99,,2013-08-11 10:15:00,
2013-08-11 04:10:00,58.0,-99.9,-100.00,SSW,196,6.0,-999.0,-999,-99.99,,,-99.99,,2013-08-11 11:10:00,
2013-08-11 05:15:00,58.0,-99.9,-100.00,SE,133,1.0,-999.0,-999,-99.99,,,-99.99,,2013-08-11 12:15:00,
2013-08-11 06:15:00,57.0,-99.9,-100.00,South,185,3.0,-999.0,-999,-99.99,,,-99.99,,2013-08-11 13:15:00,
2013-08-11 07:06:00,57.0,-99.9,-100.00,South,185,3.0,-999.0,-999,-99.99,,,-99.99,,2013-08-11 14:06:00,
2013-08-11 07:15:00,58.0,-99.9,-100.00,SSW,194,3.0,-999.0,-999,-99.99,,,-99.99,,2013-08-11 14:15:00,
2013-08-11 08:09:00,58.0,-99.9,-100.00,SSW,194,3.0,-999.0,-999,-99.99,,,-99.99,,2013-08-11 15:09:00,
2013-08-11 08:15:00,58.0,-99.9,-100.00,ESE,123,2.0,-999.0,-999,-99.99,,,-99.99,,2013-08-11 15:15:00,
2013-08-11 09:10:00,60.0,-99.9,-100.00,SE,129,3.0,-999.0,-999,-99.99,,,-99.99,,2013-08-11 16:10:00,
2013-08-11 10:09:00,60.0,-99.9,-100.00,SE,129,3.0,-999.0,-999,-99.99,,,-99.99,,2013-08-11 17:09:00,
2013-08-11 10:15:00,61.0,-99.9,-100.00,SE,129,6.0,-999.0,-999,-99.99,,,-99.99,,2013-08-11 17:15:00,
2013-08-11 11:10:00,62.0,-99.9,-100.00,East,92,5.0,-999.0,-999,-99.99,,,-99.99,,2013-08-11 18:10:00,
2013-08-11 12:15:00,64.0,-99.9,-100.00,SE,125,6.0,-999.0,-999,-99.99,,,-99.99,,2013-08-11 19:15:00,
2013-08-11 13:20:00,66.0,-99.9,-100.00,WSW,257,6.0,-999.0,-999,-99.99,,,-99.99,,2013-08-11 20:20:00,
2013-08-11 14:09:00,66.0,-99.9,-100.00,WSW,257,6.0,-999.0,-999,-99.99,,,-99.99,,2013-08-11 21:09:00,
2013-08-11 14:15:00,66.0,-99.9,-100.00,WSW,257,6.0,-999.0,-999,-99.99,,,-99.99,,2013-08-11 21:15:00,
2013-08-11 14:20:00,63.0,-99.9,-100.00,NNE,22,5.0,-999.0,-999,-99.99,,,-99.99,,2013-08-11 21:20:00,
2013-08-11 15:06:00,63.0,-99.9,-100.00,NNE,22,5.0,-999.0,-999,-99.99,,,-99.99,,2013-08-11 22:06:00,
2013-08-11 15:17:00,63.0,-99.9,-100.00,NNE,22,5.0,-999.0,-999,-99.99,,,-99.99,,2013-08-11 22:17:00,
2013-08-11 16:19:00,65.0,-99.9,-100.00,NNE,29,9.0,-999.0,-999,-99.99,,,-99.99,,2013-08-11 23:19:00,
2013-08-11 17:15:00,66.0,-99.9,-100.00,North,9,5.0,-999.0,-999,-99.99,,,-99.99,,2013-08-12 00:15:00,
2013-08-11 18:15:00,66.0,-99.9,-100.00,North,3,9.0,-999.0,-999,-99.99,,,-99.99,,2013-08-12 01:15:00,
2013-08-11 19:15:00,66.0,-99.9,-100.00,NW,322,0.0,-999.0,-999,-99.99,,,-99.99,,2013-08-12 02:15:00,
2013-08-11 20:10:00,66.0,-99.9,-100.00,NW,322,0.0,-999.0,-999,-99.99,,,-99.99,,2013-08-12 03:10:00,
2013-08-11 21:02:00,64.0,-99.9,-100.00,WNW,298,9.0,-999.0,-999,-99.99,,,-99.99,,2013-08-12 04:02:00,
2013-08-11 21:12:00,64.0,-99.9,-100.00,WNW,298,9.0,-999.0,-999,-99.99,,,-99.99,,2013-08-12 04:12:00,
2013-08-11 22:02:00,62.0,-99.9,-100.00,NW,312,2.0,-999.0,-999,-99.99,,,-99.99,,2013-08-12 05:02:00,
2013-08-11 22:11:00,62.0,-99.9,-100.00,NW,312,2.0,-999.0,-999,-99.99,,,-99.99,,2013-08-12 05:11:00,
2013-08-11 23:11:00,61.0,-99.9,-100.00,WNW,286,2.0,-999.0,-999,-99.99,,,-99.99,,2013-08-12 06:11:00,